Location: Bagnolo San Vito
(45.0833°N, 10.8833°E)
Time: 23:50:40
(UTC+00:00)

SL-4 R/B - Pass Details

Date: 03 March 2021
Orbit: 428 x 663 km, 51.6° (Epoch: 17 April)

Event Time Altitude Azimuth Distance (km) Brightness Sun altitude
Rises 19:51:36 0° 299° (WNW) 2,440 6.5 -29.4°
Reaches altitude 10° 19:53:46 10° 299° (WNW) 1,548 5.2 -29.7°
Enters shadow 19:54:39 17° 299° (WNW) 1,185 4.5 -29.9°
